Wind_Speed
39 41 42 43 44 46 48 49 48 44 41 32 29 27 28 31 34 35 35 36 37 40 44 46 49 51 53 53 54 54 59 60 61
39 40 42 44 45 47 47 46 46 41 32 29 27 27 31 35 37 38 38 39 40 43 44 47 47 50 53 52 53 58 57 59 61
41 42 43 46 47 46 43 41 34 26 28 30 27 30 34 37 40 40 40 41 42 45 46 48 50 53 53 55 57 59 61 59 59
43 44 45 47 47 42 38 24 24 26 29 30 31 34 36 38 40 41 42 43 45 49 51 51 54 56 57 56 56 58 62 64 61
44 45 45 44 41 32 23 25 28 29 29 32 34 37 38 42 45 47 46 46 50 52 54 55 55 59 62 63 60 60 64 65 66
43 43 40 38 23 24 25 28 28 29 32 34 38 41 43 45 47 49 48 50 55 58 59 57 60 63 68 66 66 69 66 66 66
42 39 35 26 27 26 28 30 30 31 34 38 43 45 46 49 52 53 55 59 61 62 60 64 66 68 70 70 70 70 68 67 66
37 34 28 28 28 29 30 31 32 34 38 42 44 48 51 52 57 58 60 63 61 64 66 69 71 70 70 71 71 71 73 75 75
35 29 27 28 28 30 32 34 37 40 44 47 50 53 54 57 58 59 60 63 66 67 70 73 73 73 74 75 74 74 72 69 68
28 28 29 31 34 35 38 40 44 47 50 52 55 52 58 57 61 63 65 68 71 74 72 72 75 70 66 65 65 68 72 73 72
27 30 32 34 38 42 44 46 49 51 51 51 54 57 61 62 64 65 69 72 73 74 73 70 66 63 64 65 66 70 72 70 73
30 33 36 40 43 45 46 47 48 50 53 52 55 60 62 66 67 70 75 75 73 72 71 61 61 66 66 69 70 70 72 72 75
35 38 42 45 46 48 48 46 49 53 54 59 60 65 68 71 72 76 76 78 77 72 63 61 61 65 66 68 70 72 74 77 78
41 45 48 48 50 48 48 52 56 58 58 60 65 67 71 74 76 80 81 77 72 63 60 61 65 66 68 69 71 72 77 80 83
45 47 48 49 49 52 54 56 60 62 62 63 67 73 75 79 83 82 77 70 62 62 61 63 67 68 70 71 73 76 80 83 84
45 46 48 50 52 56 58 62 65 66 68 70 75 76 82 84 86 83 71 66 60 61 63 65 66 70 71 75 78 80 82 83 85
49 51 54 56 57 62 64 69 70 74 77 79 79 80 82 85 88 81 65 60 62 64 66 66 67 69 73 80 81 83 87 87 88
54 57 59 58 61 65 70 73 75 76 80 83 83 80 77 83 86 74 66 62 63 69 70 68 70 72 75 78 82 85 87 90 91
60 60 63 64 63 67 70 73 76 79 79 82 83 83 84 84 81 78 71 66 69 70 70 71 74 75 76 82 86 89 90 93 94
66 68 67 64 66 69 72 76 79 82 81 83 86 87 88 90 89 74 73 70 72 72 72 75 74 75 78 82 86 89 92 95 97
Wind_Direction
269 274 275 279 283 288 290 293 295 295 292 285 289 301 301 304 308 314 310 310 312 315 316 320 322 324 327 327 328 327 327 329 329
271 276 277 282 285 287 292 295 296 293 285 284 293 297 302 307 308 309 309 311 313 315 317 320 320 321 321 324 324 323 325 325 325
275 279 282 284 287 291 295 295 289 286 286 289 296 301 306 311 312 313 312 313 313 314 316 316 316 317 319 320 322 320 322 322 323
278 279 285 288 293 297 295 283 282 285 291 297 302 307 309 313 311 310 309 311 316 315 314 317 318 314 316 318 319 319 319 320 322
277 283 290 295 297 291 281 282 288 290 293 298 301 302 302 307 312 312 312 312 316 320 316 312 313 314 315 313 313 318 318 317 318
284 289 293 293 283 277 287 292 293 295 300 305 304 301 302 305 306 312 310 312 315 314 314 313 311 310 314 313 312 313 314 313 312
288 288 288 276 277 287 288 292 297 302 304 304 304 303 303 305 306 308 308 311 310 310 309 313 312 312 312 313 312 311 310 311 309
283 285 274 274 280 286 293 297 300 299 301 302 305 306 306 307 308 308 308 308 309 311 310 310 309 312 312 310 308 307 308 309 308
283 272 269 276 286 294 299 296 297 297 301 305 309 309 307 307 306 304 305 307 307 309 309 309 311 310 312 308 306 310 313 314 313
268 269 276 282 292 296 297 299 300 303 306 308 306 302 305 304 304 304 304 306 307 309 310 308 308 308 311 314 315 316 318 320 318
271 278 286 290 294 298 299 303 303 302 302 302 302 302 305 304 303 304 305 307 306 307 308 308 306 310 315 316 316 317 317 319 318
278 286 290 292 295 296 298 300 298 298 300 302 300 301 301 302 301 301 303 306 304 306 306 307 308 315 313 314 316 317 320 320 319
281 284 289 291 292 294 295 295 298 296 294 296 297 299 300 299 301 304 307 307 305 302 302 305 314 314 314 314 316 317 319 320 322
280 283 286 288 290 291 295 299 301 300 297 298 299 300 303 306 307 308 308 305 303 302 306 308 311 312 313 314 317 319 320 321 323
280 282 285 288 289 293 295 298 298 296 298 301 302 304 304 304 307 308 307 301 299 304 306 309 309 311 313 315 317 319 320 321 322
281 284 286 289 289 294 294 299 299 299 298 302 303 306 305 308 308 308 301 298 298 303 307 307 308 310 312 315 316 317 319 321 322
282 285 289 291 292 294 296 299 300 300 300 299 299 303 306 309 313 307 298 299 301 303 303 303 306 309 311 313 315 317 318 320 322
287 287 290 293 293 296 297 300 303 303 303 302 303 302 305 308 312 306 300 300 300 301 301 304 306 308 310 313 315 316 317 319 321
288 288 289 291 295 295 297 300 301 301 302 303 305 306 307 306 308 304 299 297 298 299 301 303 306 308 310 314 315 316 317 318 319
288 288 288 290 293 295 296 298 301 303 305 305 305 306 305 305 304 300 298 297 297 298 300 301 302 306 310 314 316 316 316 316 318
Height
10895 10893 10891 10890 10888 10884 10880 10876 10874 10871 10867 10864 10860 10857 10853 10849 10844 10839 10835 10830 10825 10819 10813 10807 10801 10796 10790 10784 10778 10773 10766 10760 10753
10888 10886 10884 10883 10880 10877 10874 10871 10866 10863 10860 10857 10854 10851 10846 10842 10837 10833 10829 10823 10817 10811 10806 10800 10794 10788 10782 10776 10770 10764 10758 10752 10745
10881 10879 10878 10875 10872 10871 10868 10864 10860 10857 10854 10851 10847 10843 10839 10835 10830 10827 10822 10816 10809 10803 10798 10792 10787 10782 10775 10768 10762 10754 10748 10743 10737
10875 10872 10870 10868 10866 10863 10859 10856 10854 10851 10849 10845 10840 10836 10832 10827 10823 10818 10813 10807 10802 10796 10791 10785 10779 10773 10767 10760 10754 10746 10738 10731 10727
10867 10866 10864 10861 10858 10854 10852 10850 10848 10844 10841 10836 10832 10828 10824 10820 10816 10812 10806 10800 10794 10788 10783 10777 10771 10764 10758 10752 10745 10738 10729 10722 10715
10862 10860 10858 10854 10851 10848 10848 10845 10842 10838 10834 10830 10827 10823 10818 10813 10807 10802 10797 10791 10785 10779 10774 10768 10762 10755 10748 10741 10735 10728 10721 10713 10705
10856 10853 10850 10848 10846 10844 10841 10837 10834 10830 10827 10824 10820 10815 10810 10805 10798 10793 10787 10781 10775 10770 10764 10758 10751 10745 10738 10730 10722 10716 10710 10702 10696
10849 10846 10845 10843 10841 10837 10834 10831 10828 10824 10820 10816 10812 10807 10801 10796 10789 10782 10777 10771 10765 10759 10752 10745 10738 10732 10725 10718 10710 10703 10697 10691 10684
10841 10841 10840 10836 10834 10832 10829 10825 10821 10817 10813 10808 10804 10798 10792 10785 10779 10772 10767 10762 10754 10748 10740 10733 10725 10717 10711 10704 10698 10690 10682 10675 10669
10835 10835 10833 10831 10828 10824 10821 10818 10813 10809 10805 10799 10794 10789 10783 10776 10768 10762 10755 10750 10743 10735 10728 10720 10711 10704 10697 10690 10684 10678 10669 10660 10654
10831 10829 10826 10823 10820 10817 10814 10810 10805 10800 10796 10792 10785 10779 10773 10765 10759 10752 10744 10738 10730 10723 10715 10708 10699 10692 10684 10677 10670 10664 10657 10648 10640
10824 10821 10818 10815 10812 10808 10805 10801 10796 10792 10787 10781 10775 10768 10763 10755 10748 10740 10733 10725 10717 10709 10702 10695 10688 10680 10672 10664 10657 10650 10642 10634 10626
10816 10813 10810 10806 10802 10798 10795 10791 10787 10781 10776 10771 10764 10758 10751 10742 10734 10727 10721 10712 10702 10694 10688 10682 10675 10668 10659 10652 10644 10636 10628 10619 10611
10808 10803 10799 10797 10792 10788 10785 10781 10776 10770 10765 10760 10753 10746 10739 10730 10721 10713 10702 10694 10688 10681 10673 10667 10660 10653 10647 10639 10630 10622 10613 10604 10595
10798 10794 10790 10787 10782 10777 10772 10768 10763 10757 10751 10747 10739 10731 10722 10713 10705 10696 10688 10679 10672 10666 10659 10652 10647 10639 10631 10623 10615 10607 10598 10588 10578
10788 10784 10780 10776 10772 10766 10761 10756 10749 10742 10737 10734 10726 10718 10707 10698 10690 10680 10670 10663 10658 10652 10646 10640 10632 10624 10615 10606 10598 10590 10582 10573 10562
10779 10775 10770 10765 10761 10754 10747 10741 10736 10729 10722 10718 10714 10708 10695 10683 10673 10663 10655 10649 10642 10635 10632 10625 10619 10611 10602 10591 10581 10572 10564 10556 10545
10767 10763 10758 10752 10747 10740 10733 10726 10720 10715 10704 10697 10694 10692 10686 10672 10656 10648 10641 10634 10627 10621 10616 10609 10603 10597 10590 10579 10567 10556 10547 10538 10528
10753 10749 10745 10739 10733 10726 10718 10711 10704 10698 10691 10681 10670 10667 10662 10659 10653 10634 10627 10621 10612 10605 10597 10590 10583 10579 10572 10564 10552 10540 10530 10520 10511
10737 10731 10726 10721 10716 10710 10703 10696 10689 10680 10674 10663 10654 10648 10642 10636 10632 10632 10613 10608 10597 10591 10582 10571 10564 10559 10557 10551 10538 10525 10514 10503 10492